TimeEDT,TemperatureF,Dew PointF,Humidity,Sea Level PressureIn,VisibilityMPH,Wind Direction,Wind SpeedMPH,Gust SpeedMPH,PrecipitationIn,Events,Conditions,WindDirDegrees,DateUTC
12:54 AM,59.0,57.9,96,29.95,4.0,Calm,Calm,-,N/A,,Clear,0,2012-10-06 04:54:00
1:54 AM,57.9,57.0,97,29.94,4.0,Calm,Calm,-,N/A,,Clear,0,2012-10-06 05:54:00
2:54 AM,64.0,57.9,80,29.92,10.0,SW,4.6,-,N/A,,Clear,230,2012-10-06 06:54:00
3:54 AM,66.0,61.0,84,29.91,10.0,Variable,4.6,-,N/A,,Clear,0,2012-10-06 07:54:00
4:54 AM,66.0,61.0,84,29.91,9.0,Variable,4.6,-,N/A,,Clear,0,2012-10-06 08:54:00
5:54 AM,66.0,61.0,84,29.90,9.0,SW,5.8,-,N/A,,Clear,230,2012-10-06 09:54:00
6:54 AM,66.0,61.0,84,29.90,9.0,Variable,4.6,-,N/A,,Clear,0,2012-10-06 10:54:00
7:54 AM,66.9,61.0,81,29.89,9.0,SW,6.9,-,N/A,,Clear,230,2012-10-06 11:54:00
8:54 AM,70.0,61.0,73,29.89,10.0,Variable,5.8,-,N/A,,Clear,0,2012-10-06 12:54:00
9:54 AM,72.0,62.1,71,29.87,10.0,Variable,6.9,-,N/A,,Clear,0,2012-10-06 13:54:00
10:54 AM,75.0,62.1,64,29.86,10.0,SW,11.5,16.1,N/A,,Clear,230,2012-10-06 14:54:00
11:54 AM,77.0,61.0,58,29.84,10.0,SSW,8.1,18.4,N/A,,Scattered Clouds,210,2012-10-06 15:54:00
12:54 PM,79.0,61.0,54,29.82,10.0,SW,10.4,18.4,N/A,,Partly Cloudy,230,2012-10-06 16:54:00
1:54 PM,81.0,57.9,45,29.79,10.0,WSW,10.4,16.1,N/A,,Mostly Cloudy,240,2012-10-06 17:54:00
2:54 PM,78.1,57.9,50,29.81,10.0,West,17.3,-,N/A,,Overcast,280,2012-10-06 18:54:00
3:54 PM,75.0,59.0,57,29.83,10.0,WNW,12.7,-,N/A,,Overcast,300,2012-10-06 19:54:00
4:54 PM,72.0,57.9,61,29.86,10.0,WNW,12.7,21.9,N/A,,Overcast,300,2012-10-06 20:54:00
5:54 PM,69.1,55.0,61,29.88,10.0,NNW,6.9,-,N/A,,Mostly Cloudy,330,2012-10-06 21:54:00
6:54 PM,64.9,50.0,58,29.91,10.0,NW,8.1,-,N/A,,Partly Cloudy,310,2012-10-06 22:54:00
7:54 PM,62.1,48.9,62,29.96,10.0,NW,9.2,-,N/A,,Partly Cloudy,320,2012-10-06 23:54:00
8:54 PM,59.0,45.0,60,29.98,10.0,NW,6.9,-,N/A,,Partly Cloudy,320,2012-10-07 00:54:00
9:54 PM,57.0,45.0,64,30.01,10.0,NW,6.9,-,N/A,,Clear,320,2012-10-07 01:54:00
10:54 PM,51.1,46.0,83,30.03,10.0,West,3.5,-,N/A,,Clear,270,2012-10-07 02:54:00
11:54 PM,52.0,45.0,77,30.02,10.0,WNW,3.5,-,N/A,,Clear,300,2012-10-07 03:54:00